Home > Weather > Omaha > Past weeks

Flag for USA Weather for the Past 2 Weeks in Omaha, Nebraska, USA

Now
64 °F

Sunny.


Feels Like: 64 °F
Forecast: 48 / 68 °F
Wind: 14 mph from Northwest

Location: Millard Airport

Current Time: May 4, 2016 at 3:00:00 PM

Latest Report: May 4, 2016 at 1:15 PM


Visibility: 10 mi

Pressure: 30.05 "Hg

Humidity: 35%

Dew Point: 36 °F

Location of OmahaLocation

Historic Weather in Omaha — Graph

°F

Omaha Temperature Yesterday

Maximum temperature yesterday: 71 °F (at 5:15 PM)
Minimum temperature yesterday: 40 °F (at 5:35 AM)
Average temperature yesterday: 58 °F

High & Low Weather Summary for the Past Weeks

 TemperatureHumidityPressure
High81 °F (Apr 24, 3:35 PM)97% (May 3, 5:15 AM)30.19 "Hg (May 3, 5:15 AM)
Low40 °F (May 3, 5:35 AM)35% (May 4, 1:15 PM)29.46 "Hg (Apr 27, 2:15 PM)
Average56 °F74%29.88 "Hg
* Reported Apr 19 1:15 PM — May 4 1:15 PM, Omaha, Weather by CustomWeather, © 2016

Note: Actual official high and low records may vary slightly from our data, if they occured in-between our weather recording intervals... More about our weather records

Advertising

Omaha Weather History for the Previous 24 Hours

Scroll right to see more
 ConditionsComfort  
Time TempWeatherWind HumidityBarometerVisibility
1:15 PM
Wed, May 4
64 °FSunny.14 mph35%30.05 "Hg10 mi
12:55 PM64 °FSunny.8 mph38%30.06 "Hg10 mi
12:35 PM64 °FSunny.14 mph38%30.06 "Hg10 mi
12:15 PM63 °FSunny.12 mph41%30.06 "Hg10 mi
11:55 AM63 °FSunny.12 mph40%30.06 "Hg10 mi
11:15 AM61 °FSunny.12 mph44%30.06 "Hg10 mi
10:55 AM60 °FSunny.8 mph47%30.05 "Hg10 mi
10:15 AM58 °FSunny.5 mph48%30.05 "Hg10 mi
9:35 AM57 °FSunny.7 mph47%30.05 "Hg10 mi
9:15 AM56 °FSunny.10 mph47%30.05 "Hg10 mi
8:55 AM56 °FSunny.6 mph49%30.03 "Hg10 mi
8:35 AM54 °FSunny.10 mph51%30.03 "Hg10 mi
8:15 AM53 °FSunny.6 mph53%30.02 "Hg10 mi
7:55 AM52 °FSunny.6 mph53%30.01 "Hg10 mi
7:15 AM50 °FClear.7 mph58%29.99 "Hg10 mi
6:15 AM50 °FClear.6 mph57%29.95 "Hg10 mi
5:55 AM51 °FClear.7 mph55%29.95 "Hg10 mi
5:15 AM52 °FClear.8 mph54%29.94 "Hg10 mi
4:15 AM53 °FClear.6 mph54%29.93 "Hg10 mi
3:55 AM53 °FClear.7 mph57%29.92 "Hg10 mi
2:55 AM58 °FClear.6 mph49%29.90 "Hg10 mi
2:35 AM59 °FClear.3 mph49%29.90 "Hg10 mi
2:15 AM59 °FClear.5 mph50%29.90 "Hg10 mi
1:15 AM61 °FClear.8 mph54%29.88 "Hg10 mi
12:55 AM62 °FClear.13 mph53%29.88 "Hg10 mi
12:35 AM60 °FClear.8 mph59%29.87 "Hg10 mi
12:15 AM60 °FClear.6 mph58%29.86 "Hg10 mi
11:35 PM
Tue, May 3
61 °FPassing clouds.6 mph55%29.86 "Hg10 mi
11:15 PM60 °FPassing clouds.5 mph58%29.86 "Hg10 mi
10:55 PM60 °FClear.3 mph58%29.86 "Hg10 mi
10:15 PM60 °FClear.7 mph58%29.87 "Hg10 mi
9:55 PM58 °FClear.3 mph61%29.88 "Hg10 mi
9:15 PM62 °FSunny.No wind52%29.89 "Hg10 mi
8:55 PM64 °FSunny.No wind47%29.89 "Hg10 mi
8:15 PM66 °FSunny.7 mph43%29.89 "Hg10 mi
7:55 PM67 °FSunny.8 mph42%29.89 "Hg10 mi
7:35 PM70 °FSunny.15 mph36%29.89 "Hg10 mi
7:15 PM69 °FSunny.9 mph40%29.90 "Hg10 mi
6:55 PM70 °FScattered clouds.12 mph38%29.91 "Hg10 mi
5:55 PM70 °FPartly sunny.12 mph37%29.92 "Hg10 mi
5:15 PM71 °FBroken clouds.12 mph37%29.93 "Hg10 mi
4:55 PM70 °FBroken clouds.13 mph38%29.94 "Hg10 mi
4:15 PM70 °FPartly sunny.15 mph37%29.95 "Hg10 mi
3:55 PM69 °FOvercast.13 mph38%29.96 "Hg10 mi
3:35 PM68 °FPartly sunny.12 mph38%29.96 "Hg10 mi
3:15 PM69 °FScattered clouds.9 mph37%29.98 "Hg10 mi
Weather by CustomWeather, © 2016

See weather overviewHow to use our weather pages